N5571R KRIC-KRDU

Flight info

Callsign N5571R
Flight time N/A
Altitude 4000
Route THHMP T398 RDU
Aircraft C172/L-VGD/C

Departure

Time 2026-04-29 22:29
Airport Richmond International Airport (KRIC)

Arrival

Time N/A
Airport Raleigh-Durham International Airport (KRDU)
Time Latitude Longitude Altitude Speed Heading
2026-04-29 22:17 37.51752 -77.32789 163 ft 0 kts 160°
2026-04-29 22:25 37.51748 -77.32789 163 ft 4 kts 175°
2026-04-29 22:25 37.51734 -77.32812 163 ft 8 kts 243°
2026-04-29 22:25 37.51712 -77.32864 162 ft 0 kts 226°
2026-04-29 22:25 37.51702 -77.32873 162 ft 0 kts 211°
2026-04-29 22:26 37.51699 -77.32875 162 ft 0 kts 204°
2026-04-29 22:26 37.51675 -77.32873 162 ft 8 kts 159°
2026-04-29 22:26 37.51637 -77.32797 163 ft 13 kts 93°
2026-04-29 22:26 37.51635 -77.32684 163 ft 12 kts 89°
2026-04-29 22:27 37.51638 -77.32575 163 ft 8 kts 91°
2026-04-29 22:27 37.51638 -77.32569 163 ft 0 kts 92°
2026-04-29 22:27 37.51617 -77.32462 164 ft 21 kts 141°
2026-04-29 22:28 37.51402 -77.32513 163 ft 54 kts 191°
2026-04-29 22:28 37.50941 -77.32661 216 ft 77 kts 188°
2026-04-29 22:28 37.50407 -77.32803 392 ft 77 kts 185°
2026-04-29 22:28 37.49879 -77.32943 574 ft 77 kts 185°
2026-04-29 22:29 37.49360 -77.33040 747 ft 77 kts 183°
2026-04-29 22:29 37.48824 -77.33116 931 ft 76 kts 184°
2026-04-29 22:29 37.48298 -77.33236 1124 ft 75 kts 186°
2026-04-29 22:29 37.47791 -77.33334 1304 ft 74 kts 186°
2026-04-29 22:30 37.47281 -77.33455 1483 ft 74 kts 191°
2026-04-29 22:30 37.46798 -77.33665 1669 ft 73 kts 197°
2026-04-29 22:30 37.46331 -77.33888 1836 ft 73 kts 193°
2026-04-29 22:30 37.45846 -77.34091 2010 ft 73 kts 198°
2026-04-29 22:31 37.45451 -77.34511 2144 ft 79 kts 230°
2026-04-29 22:31 37.45162 -77.35053 2350 ft 73 kts 221°
2026-04-29 22:31 37.44797 -77.35514 2500 ft 74 kts 218°
2026-04-29 22:31 37.44420 -77.35945 2664 ft 75 kts 220°
2026-04-29 22:32 37.44050 -77.36414 2836 ft 73 kts 215°
2026-04-29 22:32 37.43642 -77.36774 2996 ft 73 kts 210°
2026-04-29 22:32 37.43193 -77.37134 3071 ft 81 kts 212°
2026-04-29 22:32 37.42717 -77.37563 3062 ft 86 kts 214°
2026-04-29 22:33 37.42228 -77.38011 3059 ft 88 kts 214°
2026-04-29 22:33 37.41725 -77.38466 3060 ft 88 kts 214°
2026-04-29 22:33 37.41230 -77.38914 3061 ft 87 kts 213°
2026-04-29 22:33 37.40732 -77.39355 3061 ft 88 kts 213°
2026-04-29 22:34 37.40224 -77.39804 3063 ft 89 kts 213°
2026-04-29 22:34 37.39719 -77.40251 3080 ft 87 kts 213°
2026-04-29 22:34 37.39248 -77.40666 3191 ft 78 kts 213°
2026-04-29 22:34 37.38820 -77.41040 3297 ft 71 kts 212°
2026-04-29 22:35 37.38426 -77.41380 3408 ft 66 kts 212°
2026-04-29 22:35 37.38044 -77.41704 3528 ft 68 kts 212°
2026-04-29 22:35 37.37644 -77.42044 3651 ft 71 kts 213°
2026-04-29 22:35 37.37225 -77.42407 3776 ft 74 kts 214°
2026-04-29 22:36 37.36794 -77.42783 3894 ft 77 kts 215°
2026-04-29 22:36 37.36348 -77.43179 4021 ft 79 kts 215°
2026-04-29 22:36 37.35869 -77.43607 4007 ft 87 kts 216°
2026-04-29 22:36 37.35377 -77.44052 3998 ft 88 kts 216°
2026-04-29 22:37 37.34877 -77.44501 3998 ft 88 kts 216°
2026-04-29 22:37 37.34378 -77.44945 3997 ft 87 kts 216°
2026-04-29 22:37 37.33875 -77.45389 3999 ft 87 kts 215°
2026-04-29 22:37 37.33377 -77.45830 3997 ft 88 kts 216°
2026-04-29 22:38 37.32877 -77.46269 3997 ft 88 kts 216°
2026-04-29 22:38 37.32373 -77.46712 3997 ft 87 kts 216°
2026-04-29 22:38 37.31871 -77.47154 3997 ft 87 kts 216°
2026-04-29 22:38 37.31377 -77.47587 4000 ft 87 kts 216°
2026-04-29 22:39 37.30874 -77.48029 4000 ft 87 kts 215°
2026-04-29 22:39 37.30371 -77.48471 4000 ft 88 kts 216°
2026-04-29 22:39 37.29871 -77.48909 4000 ft 88 kts 216°
2026-04-29 22:39 37.29364 -77.49353 4001 ft 88 kts 216°
2026-04-29 22:40 37.28863 -77.49793 3997 ft 88 kts 216°
2026-04-29 22:40 37.28358 -77.50237 4002 ft 88 kts 216°
2026-04-29 22:40 37.27855 -77.50678 4001 ft 89 kts 216°
2026-04-29 22:40 37.27343 -77.51125 3999 ft 89 kts 216°
2026-04-29 22:41 37.26840 -77.51568 3999 ft 89 kts 216°
2026-04-29 22:41 37.26334 -77.52011 4001 ft 88 kts 217°
2026-04-29 22:41 37.25829 -77.52454 3998 ft 88 kts 216°
2026-04-29 22:41 37.25398 -77.52833 3999 ft 88 kts 216°
2026-04-29 22:42 37.24949 -77.53225 4000 ft 88 kts 216°
2026-04-29 22:42 37.24490 -77.53627 4000 ft 88 kts 217°
2026-04-29 22:42 37.23988 -77.54067 3997 ft 88 kts 217°
2026-04-29 22:42 37.23483 -77.54510 3998 ft 88 kts 216°
2026-04-29 22:43 37.22981 -77.54950 3998 ft 87 kts 216°
2026-04-29 22:43 37.22530 -77.55344 3998 ft 88 kts 216°
2026-04-29 22:43 37.22118 -77.55705 3998 ft 88 kts 216°
2026-04-29 22:43 37.21617 -77.56142 3996 ft 88 kts 216°
2026-04-29 22:44 37.21112 -77.56584 3995 ft 88 kts 216°
2026-04-29 22:44 37.20611 -77.57024 3995 ft 88 kts 216°